Location: Austin
(30.3000°N, 97.7500°W)
Time: 11:03:45
(UTC-05:00)

IUS-14 SRM-1 - Pass Details

Date: 03 April 2024
Orbit: 396 x 34238 km, 26.5° (Epoch: 21 April)

Event Time Altitude Azimuth Distance (km) Brightness Sun altitude
Exits shadow 06:41:33 - 277° (W) 8,910 8.3 -8.4°
Reaches altitude 10° 06:47:47 10° 275° (W) 6,387 7.6 -7.1°
Maximum altitude 06:59:50 43° 208° (SSW) 1,276 4.4 -4.5°
Drops below altitude 10° 07:03:10 10° 133° (SE) 1,812 6.1 -3.8°
Sets 07:04:35 0° 124° (SE) 2,450 7.0 -3.5°
